THURAYA-3

Last updated on Nov. 14, 2019, 4:21 a.m. UTC

1 32404U 08001A   19317.78562171 -.00000289  00000-0  00000+0 0  9999
2 32404   3.7796   6.0586 0004955 220.7878 207.1128  1.00273007 43399
UTC
Height (km)
Latitude
Longitude
Inclination
Orbital Period
UTC large
Height (km)
Speed (km/s)
/
Latitude / Longitude
Inclination (degrees)
Orbital Period (minutes)
Azimuth
Elevation
Range (km)
Doppler Factor
iOS Compass Heading
iOS Angle

Next 30 passes for location: Hong Kong

Rise time Rise Azimuth (degrees) Set time Set Azimuth (degrees) Duration Max altitude (degrees)

No matching passes for this satellites